Simultaneous Nadir Overpasses (SNOs) Predictions

Prediction of SNOs between GOES-17 and NPP Satellite Orbit:

Table of predicted SNOs for the next 14.0 days since TLE Epoch: 11/25/2023
Index Date Time (GOES-17) GOES-17 Lat,Lon NPP Lat,Lon Distance(km) Time Diff (sec)
1 11/25/2023 20:24:11 -0.01,-104.66 0.06,-104.34 36.22 80
2 11/28/2023 08:27:13 0.02,-104.68 0.10,-105.07 44.48 80
3 11/29/2023 08:05:48 0.02,-104.68 -0.89,-100.54 471.75 80
4 11/30/2023 20:27:44 -0.01,-104.65 -0.26,-105.85 135.66 80
5 12/01/2023 20:11:38 -0.00,-104.66 0.73,-101.31 380.98 80
6 12/03/2023 08:33:26 0.00,-104.69 0.41,-106.59 215.78 80
7 12/04/2023 08:12:00 -0.00,-104.69 -0.59,-102.05 300.85 80
8 12/05/2023 20:33:56 0.00,-104.66 -0.60,-107.35 306.10 80
9 12/06/2023 20:17:50 0.00,-104.67 0.41,-102.82 211.00 80
10 12/08/2023 08:39:36 0.00,-104.71 0.78,-108.08 384.70 80
